{"data":{"norad_id":64129,"epoch":"2026-09-20T23:06:23.171616Z","epoch_age_seconds":100356,"freshness":"FRESH","line1":"1 64129U 25111G   26263.96276819  .00105723  00000+0  81337-3 0  9991","line2":"2 64129  42.9937 236.5209 0001964 160.5532 199.5410 15.70944526 77351","mean_motion":15.70944526,"eccentricity":0.0001964,"inclination_deg":42.9937,"raan_deg":236.5209,"arg_perigee_deg":160.5532,"mean_anomaly_deg":199.541,"bstar":0.00081337,"rev_number":7735,"period_min":91.664598982791,"perigee_km":354.87370019884,"apogee_km":357.51894632822,"semimajor_km":6734.3333232635,"source":"CELESTRAK","updated_at":"2026-09-21T09:00:35.233568Z"}}